Overview Statistics Trail Chart Weather Telemetry Raw packets
 

This is the latest recevied weather packets stored in our database for station/object KN6DHD. If no packets are shown the sender has not sent any weather packets the latest 10 day(s).

<< 9 10 11 12 13 14 15 >>
Time Temp. Humidity Pressure Rain* Wind** Luminosity Snow
1777672955 28.33° C 51% 1012.7 hPa 0 mm - 588 W/m² -
1777672653 28.33° C 51% 1012.8 hPa 0 mm - 570 W/m² -
1777672348 28.33° C 51% 1012.6 hPa 0 mm - 642 W/m² -
1777672043 28.33° C 51% 1012.9 hPa 0 mm - 663 W/m² -
1777671739 27.22° C 52% 1012.9 hPa 0 mm - 549 W/m² -
1777671436 27.78° C 51% 1012.9 hPa 0 mm - 588 W/m² -
1777671132 28.33° C 51% 1013 hPa 0 mm - 619 W/m² -
1777670828 28.33° C 51% 1012.9 hPa 0 mm - 574 W/m² -
1777670525 27.78° C 52% 1012.9 hPa 0 mm - 574 W/m² -
1777670222 27.78° C 52% 1013.1 hPa 0 mm - 574 W/m² -
1777669919 27.22° C 52% 1012.9 hPa 0 mm - 569 W/m² -
1777669616 26.67° C 54% 1012.8 hPa 0 mm - 642 W/m² -
1777669312 27.22° C 53% 1013 hPa 0 mm - 626 W/m² -
1777669008 26.67° C 54% 1012.9 hPa 0 mm - 591 W/m² -
1777668706 27.22° C 54% 1013 hPa 0 mm - 573 W/m² -
1777668403 26.67° C 54% 1013.1 hPa 0 mm - 615 W/m² -
1777668099 26.67° C 54% 1013 hPa 0 mm - 592 W/m² -
1777667795 26.11° C 55% 1013.1 hPa 0 mm - 531 W/m² -
1777667493 26.11° C 55% 1013.4 hPa 0 mm - 546 W/m² -
1777667190 26.11° C 55% 1013.7 hPa 0 mm - 615 W/m² -
1777666887 25.56° C 57% 1013.6 hPa 0 mm - 646 W/m² -
1777666584 25.56° C 56% 1013.6 hPa 0 mm - 613 W/m² -
1777666280 25.56° C 57% 1013.6 hPa 0 mm - 584 W/m² -
1777665977 25.56° C 56% 1013.5 hPa 0 mm - 593 W/m² -
1777665675 25.56° C 57% 1013.7 hPa 0 mm - 620 W/m² -

* Rain latest hour (hover to see other rain measurements)
** Current wind speed in m/s (hover to see current wind gust speed)